GEFSMA_con_maxscp_270.txt.gz
SCP
1 1 1 1 1 1 1 1 1 1 2 2 2 2 2 1 1 1 1 1 1 1 1 1 1 1 1 1 1 1 1 1 1 1 1 1 1 1 1 1 1 1 1
2 2 2 2 1 1 1 1 1 1 2 1 2 2 2 1 1 1 1 1 1 1 1 1 1 1 1 1 1 1 1 1 1 1 1 1 1 1 1 1 1 1 1
3 3 3 2 2 2 1 1 1 1 1 1 2 2 2 2 1 1 1 1 1 1 1 1 1 1 1 1 1 1 1 1 1 1 1 1 1 1 1 1 1 1 1
3 3 3 3 2 2 2 1 1 1 1 1 1 2 3 2 1 1 1 1 1 1 1 1 1 1 1 1 1 1 1 1 1 1 1 1 1 1 1 1 1 1 1
3 3 2 2 2 2 2 1 1 1 1 1 1 2 3 2 2 1 1 1 1 1 1 1 1 1 1 1 1 1 1 1 1 1 1 1 1 1 1 1 1 1 1
2 2 2 2 2 2 1 1 1 1 1 1 1 1 2 3 2 1 1 1 1 2 1 1 1 1 1 1 1 1 1 1 1 1 1 1 1 1 1 1 1 1 1
2 2 2 2 2 2 2 1 1 1 1 1 1 1 2 2 2 1 1 1 1 2 2 2 1 1 1 1 1 1 1 1 1 1 1 1 1 1 1 1 1 1 1
2 3 3 3 2 2 2 1 1 1 1 1 1 1 2 2 2 2 1 2 2 2 2 2 2 2 2 2 1 1 1 1 1 1 1 1 1 1 1 1 1 1 1
3 3 3 3 3 3 2 2 1 1 1 1 1 1 1 2 2 1 1 2 2 2 2 2 2 3 3 2 2 2 2 2 2 1 1 1 1 1 1 1 1 1 1
3 3 2 2 2 2 2 2 2 1 1 1 1 1 1 2 2 1 1 2 2 2 3 3 2 3 3 3 3 3 2 2 1 1 1 1 1 1 1 1 1 1 1
3 3 2 2 2 2 2 2 2 2 1 2 2 2 2 2 2 2 2 2 2 2 3 3 2 2 2 2 3 3 2 1 1 1 1 1 1 1 0 1 1 1 1
5 4 3 3 3 3 2 2 2 2 1 1 2 2 1 1 2 2 2 2 2 2 2 2 2 2 2 2 3 2 2 1 1 1 1 1 1 0 0 0 0 0 0
5 4 3 3 3 3 3 2 2 2 2 2 2 2 1 1 2 2 2 2 2 2 2 3 3 3 2 3 3 2 1 1 0 0 0 0 0 0 0 0 0 0 0
4 4 3 3 3 3 2 3 2 2 2 2 2 2 2 2 2 2 2 2 2 2 2 3 3 3 3 3 3 2 1 0 0 0 0 0 0 0 0 0 0 0 0
4 4 3 3 3 3 2 3 3 3 3 3 2 2 2 2 2 2 2 3 3 2 2 3 3 4 3 3 3 2 1 0 0 0 0 0 0 0 0 0 0 0 0
5 4 4 4 3 3 3 3 3 3 3 3 3 3 3 2 2 2 3 3 3 3 3 3 3 4 4 4 3 2 1 0 0 0 0 0 0 0 0 0 0 0 0
6 5 4 4 4 4 4 3 3 3 3 3 3 3 3 3 3 3 3 3 3 4 4 4 3 4 4 4 3 2 1 0 0 0 0 0 0 0 0 0 0 0 0
7 6 5 4 4 4 4 4 4 4 4 3 3 3 4 4 4 4 3 3 3 3 4 4 4 4 4 4 3 2 1 0 0 0 0 0 0 0 0 0 0 0 0
9 7 6 5 5 5 5 4 4 4 4 4 4 4 4 5 5 5 4 4 3 3 4 4 4 4 4 4 3 2 1 1 0 0 0 0 0 0 0 0 0 0 0
11 9 7 7 6 5 5 5 5 5 5 5 4 4 4 4 5 5 5 4 4 3 4 4 5 4 3 3 3 3 2 1 1 0 0 0 0 0 0 0 0 0 0
12 9 8 8 7 5 5 5 6 5 5 6 5 4 4 4 4 4 4 4 3 3 3 4 4 4 4 4 4 3 2 2 1 1 0 0 0 0 0 0 0 0 0
12 10 8 8 8 6 4 5 7 7 7 7 6 4 3 3 4 4 4 3 3 3 3 4 4 4 4 4 4 3 3 2 2 1 0 0 0 0 0 0 0 0 0
11 10 9 9 9 7 5 5 6 8 10 9 7 5 4 3 3 4 4 3 3 3 3 3 3 4 4 4 3 3 3 2 2 1 0 0 0 0 0 0 0 0 0
10 10 10 10 10 9 6 5 5 7 10 10 8 7 6 5 4 4 4 5 4 3 2 2 2 3 3 4 4 3 3 2 2 1 1 0 0 0 0 0 0 0 0
12 12 11 11 11 10 7 4 4 7 9 10 9 8 7 6 4 4 5 6 5 4 3 2 1 2 2 3 3 3 3 2 2 1 1 0 0 0 0 0 0 0 0
14 12 11 10 11 10 8 4 3 7 10 9 8 7 6 5 4 4 5 7 6 5 3 2 1 1 1 1 2 3 3 2 2 1 1 1 0 0 0 0 0 0 0

GEFSMA_con_maxscp_276.txt.gz
SCP
0 0 0 0 0 0 0 1 1 1 1 1 0 0 0 0 0 0 0 1 1 1 1 1 1 1 1 1 1 1 1 1 1 1 1 1 1 1 1 1 1 1 1
0 0 0 0 0 0 0 1 1 1 1 0 0 0 0 0 0 0 0 0 1 1 1 1 1 1 1 1 1 1 1 1 1 1 1 1 1 1 1 1 1 1 1
1 0 0 0 0 0 0 0 1 1 0 0 0 0 0 0 0 0 0 0 1 1 1 1 1 1 1 1 1 1 1 1 1 1 1 1 1 1 1 1 1 1 1
1 1 1 1 1 0 0 0 0 0 0 0 0 0 0 0 0 0 0 0 0 1 1 1 1 1 1 1 1 1 1 1 1 1 1 1 1 1 1 1 1 1 1
1 1 1 1 1 0 0 0 0 0 0 0 0 0 0 0 0 0 0 0 0 0 1 1 1 1 1 1 1 1 1 1 1 1 1 1 1 1 1 1 1 1 1
1 1 1 1 1 0 0 0 0 0 0 0 0 0 0 0 0 0 0 0 0 0 1 1 1 1 1 1 1 1 1 1 1 1 1 1 1 1 1 1 1 1 1
1 1 1 1 1 0 0 0 0 0 0 0 0 0 0 0 0 0 0 1 1 1 1 1 1 1 1 1 1 1 2 2 2 1 1 1 1 1 1 1 1 1 1
1 1 1 1 1 1 1 1 0 0 0 0 0 0 0 0 0 0 0 1 1 1 1 1 1 1 1 1 1 1 2 2 2 2 2 2 2 1 1 1 1 1 1
1 1 1 1 1 1 1 1 1 1 1 0 0 0 0 0 0 0 0 0 1 1 1 1 1 1 1 1 1 2 2 2 2 2 2 2 2 1 1 1 1 1 1
2 2 2 2 2 1 1 1 1 1 1 1 1 0 0 0 0 0 0 1 1 1 1 1 1 1 1 1 1 1 2 1 2 2 2 2 2 1 1 1 1 1 1
2 2 2 2 2 2 2 1 1 1 1 1 1 1 1 1 1 0 0 1 1 1 1 1 1 1 1 1 1 1 1 1 1 1 1 1 1 1 1 1 1 0 0
2 2 2 2 2 2 2 2 1 1 1 1 1 1 1 1 1 1 1 1 1 1 1 1 1 1 1 1 1 1 1 1 1 1 1 1 1 1 1 1 0 0 0
2 2 2 2 2 2 2 2 2 1 1 1 1 1 1 1 1 1 1 1 1 1 1 1 1 1 1 1 1 1 1 0 0 0 0 0 0 0 0 0 0 0 0
2 2 2 2 1 1 2 2 2 2 1 1 1 1 1 1 1 1 1 1 1 1 1 1 1 1 1 1 0 0 0 0 0 0 0 0 0 0 0 0 0 0 0
2 2 2 2 1 1 2 2 2 2 2 2 1 1 1 1 2 2 2 1 1 1 1 1 1 1 1 1 0 0 0 0 0 0 0 0 0 0 0 0 0 0 0
3 3 2 2 1 2 2 2 2 2 2 2 2 2 2 2 2 2 2 1 1 1 1 1 1 1 1 1 1 0 0 0 0 0 0 0 0 0 0 0 0 0 0
3 3 2 2 2 2 2 2 3 2 2 2 2 2 2 2 2 2 2 1 1 1 1 1 1 1 1 1 1 0 0 0 0 0 0 0 0 0 0 0 0 0 0
4 3 3 2 2 2 3 3 3 3 3 3 2 2 2 2 2 2 2 1 1 1 1 1 1 1 1 1 1 1 0 0 0 0 0 0 0 0 0 0 0 0 0
5 5 4 3 2 2 3 4 4 4 3 3 3 2 2 2 2 2 2 1 1 1 1 1 1 2 1 1 1 1 0 0 0 0 0 0 0 0 0 0 0 0 0
7 6 5 3 2 2 3 3 4 4 4 4 4 3 2 1 1 2 2 2 2 2 1 1 2 2 2 1 1 1 0 0 0 0 0 0 0 0 0 0 0 0 0
8 7 5 3 3 3 3 3 4 4 4 5 4 3 2 2 1 2 2 2 2 2 2 2 2 2 1 1 2 1 1 0 0 0 0 0 0 0 0 0 0 0 0
7 7 6 4 3 3 3 3 3 3 4 5 5 4 3 2 2 2 2 2 2 2 2 2 2 2 1 1 2 1 1 0 0 0 0 0 0 0 0 0 0 0 0
6 6 6 5 4 4 3 3 2 3 4 5 5 5 3 2 2 2 2 2 2 2 2 2 2 2 1 1 1 2 1 1 0 0 0 0 0 0 0 0 0 0 0
5 5 5 5 5 5 4 3 2 3 4 5 6 5 4 2 2 2 2 2 2 2 2 1 1 1 1 1 1 2 1 1 0 0 0 0 0 0 0 0 0 0 0
5 5 5 5 6 5 4 3 3 3 4 4 5 5 3 2 2 2 2 3 3 3 2 1 1 1 1 1 1 1 1 1 0 0 0 0 0 0 0 0 0 0 0
6 6 6 6 6 5 4 3 3 3 4 4 4 4 3 2 2 2 2 2 3 3 3 1 1 0 0 0 1 1 1 1 1 1 0 0 0 0 0 0 0 0 0

GEFSMA_con_maxscp_282.txt.gz
SCP
0 0 0 0 0 0 0 0 0 0 0 0 0 0 0 0 0 0 0 0 1 1 1 1 1 1 1 1 1 1 1 1 1 1 0 0 0 0 0 0 1 1 1
0 0 0 0 0 0 0 0 0 0 0 0 0 0 0 0 0 0 0 0 1 1 1 1 1 1 1 1 1 1 1 1 1 0 0 1 1 0 0 0 1 1 1
0 0 0 0 0 0 0 0 0 0 0 0 0 0 0 0 0 0 0 1 1 1 1 1 1 1 1 1 1 0 1 1 0 0 0 0 1 0 0 0 0 1 1
0 0 0 0 0 0 0 0 0 0 0 0 0 0 0 0 0 0 0 0 1 1 1 1 1 1 1 1 1 0 0 1 1 1 1 1 1 1 1 0 1 1 1
0 0 0 0 0 0 0 0 0 0 0 0 0 0 0 0 0 0 0 0 0 1 1 1 1 1 1 1 1 1 1 1 1 1 1 1 1 1 1 1 1 1 1
1 0 0 0 0 0 0 0 0 0 0 0 0 0 0 0 0 0 0 0 0 0 1 1 1 1 1 1 1 1 1 1 1 1 1 1 1 1 1 1 1 1 1
1 1 1 1 0 0 0 0 0 0 0 0 0 0 0 0 0 0 0 0 0 1 1 1 1 1 1 1 1 1 1 1 1 1 1 1 1 1 1 1 1 1 1
1 1 1 1 1 1 1 1 1 1 1 1 0 0 0 0 0 0 0 0 1 1 1 1 1 1 1 1 1 1 1 1 1 2 2 1 1 1 1 1 1 1 1
1 1 1 1 1 1 1 1 1 1 1 1 1 1 1 1 1 1 1 1 1 1 2 2 1 1 1 1 1 1 1 1 1 1 1 1 1 1 1 1 1 1 1
1 1 1 1 1 1 1 1 1 1 1 1 1 1 1 1 1 1 1 1 1 1 2 2 2 1 1 1 1 1 1 1 1 1 1 1 1 1 1 1 1 1 1
1 1 1 1 1 2 1 1 1 1 1 1 1 1 1 1 1 1 1 1 1 1 2 2 2 1 1 1 1 1 1 1 1 1 1 1 1 1 1 1 1 1 1
1 1 1 1 2 2 1 1 1 1 1 1 1 2 2 2 2 1 1 1 1 1 2 2 1 1 1 1 1 1 1 1 0 0 0 0 1 1 1 1 1 1 1
1 1 1 2 2 2 1 1 1 1 1 1 1 1 2 2 2 2 2 1 1 1 1 1 1 1 1 1 1 0 0 0 0 0 0 0 0 0 0 0 0 0 0
1 1 2 2 2 2 2 2 2 1 1 1 1 1 2 2 2 2 2 2 1 1 1 1 1 1 1 1 1 0 0 0 0 0 0 0 0 0 0 0 0 0 0
2 2 2 2 2 2 2 2 1 1 1 2 2 2 2 2 2 2 2 2 1 1 1 1 1 1 1 1 1 0 0 0 0 0 0 0 0 0 0 0 0 0 0
2 2 2 3 3 3 2 2 1 1 1 2 2 2 3 3 3 3 2 2 2 1 1 1 1 1 1 1 1 1 0 0 0 0 0 0 0 0 0 0 0 0 0
2 2 3 3 3 3 2 1 1 1 1 2 2 2 2 3 3 2 2 2 2 2 1 1 1 1 1 1 1 1 1 0 0 0 0 0 0 0 0 0 0 0 0
2 2 3 3 4 3 3 2 1 1 2 2 2 2 2 2 2 2 2 2 2 2 1 1 1 1 1 1 1 1 1 0 0 0 0 0 0 0 0 0 0 0 0
2 2 3 3 3 3 3 2 2 2 2 2 2 2 2 2 2 2 2 3 3 2 2 1 1 1 1 1 1 1 0 0 0 0 0 0 0 0 0 0 0 0 0
2 2 3 3 3 3 3 2 3 3 2 2 2 3 3 3 3 3 3 3 3 3 2 2 1 1 1 1 1 1 1 0 0 0 0 0 0 0 0 0 0 0 0
2 2 2 3 3 3 3 3 3 3 3 3 3 3 3 3 3 3 3 3 3 3 2 2 2 1 1 1 1 1 1 0 0 0 0 0 0 0 0 0 0 0 0
2 2 3 3 4 3 3 3 3 4 4 3 3 4 4 4 3 3 3 3 3 3 3 3 2 2 2 1 1 1 1 1 0 0 0 0 0 0 0 0 0 0 0
2 2 3 4 5 4 3 3 4 4 4 4 4 4 4 4 4 3 3 3 2 2 2 3 3 3 3 2 1 1 1 1 1 1 0 0 0 0 0 0 0 0 0
2 3 3 4 5 4 3 2 3 3 4 4 3 3 4 4 4 4 3 3 2 2 2 2 3 4 3 2 2 2 2 1 1 1 0 0 0 0 0 0 0 0 0
3 3 3 3 3 3 2 2 2 2 3 3 3 3 3 3 3 3 3 2 2 2 1 2 2 3 3 2 2 3 3 2 1 1 1 0 0 0 0 0 0 0 0
3 3 3 3 3 3 2 2 1 2 2 3 3 3 3 3 3 2 2 2 2 1 1 1 2 2 3 2 2 3 3 3 2 1 1 1 0 0 0 0 0 0 0

GEFSMA_con_maxscp_288.txt.gz
SCP
2 2 1 1 1 1 1 1 1 1 1 1 1 1 1 0 0 0 0 0 0 0 0 0 0 1 1 1 1 0 0 0 0 0 0 0 0 0 1 1 1 1 1
2 1 1 1 1 1 1 1 1 1 1 1 1 1 1 0 0 0 0 0 1 0 0 0 0 0 1 1 1 0 0 0 1 0 0 0 0 0 1 1 1 1 1
1 1 1 1 1 1 1 1 1 1 1 1 1 1 0 0 0 0 0 0 1 1 1 0 0 1 1 1 0 0 0 1 1 1 1 1 1 1 1 1 1 1 1
1 1 1 1 1 1 1 1 1 0 0 0 0 0 0 1 1 1 1 1 1 1 1 1 1 1 1 1 1 1 1 1 1 1 1 1 1 1 1 1 1 1 1
1 1 2 2 1 1 1 1 1 0 0 0 0 0 1 1 1 1 1 1 1 1 1 1 1 1 1 1 1 1 1 1 1 1 1 1 1 1 1 1 1 1 1
1 1 2 1 1 1 1 1 1 1 1 1 0 0 1 1 1 1 1 1 1 1 1 1 1 1 1 1 1 1 1 1 1 1 1 1 1 2 2 1 1 1 1
1 1 1 1 1 1 1 1 1 1 1 1 1 1 1 1 1 1 1 1 1 1 2 2 2 1 1 1 1 1 1 1 1 1 1 1 2 2 2 1 1 1 1
1 1 1 1 1 1 1 1 1 1 1 1 1 1 1 1 1 1 1 1 1 2 2 2 2 2 1 1 1 1 1 1 1 1 1 2 2 1 1 1 1 1 1
2 2 2 2 1 1 1 1 1 1 1 1 1 1 1 1 1 1 1 1 2 2 2 2 2 2 2 2 1 1 1 1 1 1 1 1 1 1 1 1 1 1 1
2 2 2 2 2 2 2 3 2 2 2 2 2 2 2 2 2 2 2 2 2 2 2 2 2 2 2 2 2 1 1 1 1 1 1 1 1 1 1 1 1 1 1
3 4 4 4 4 5 5 6 5 4 3 2 2 2 2 3 2 2 2 2 2 2 3 3 3 3 3 3 2 2 1 1 1 1 1 1 1 1 1 1 1 1 1
5 6 6 7 7 9 11 11 9 6 3 2 2 3 3 3 3 3 3 2 2 2 4 4 4 4 4 3 3 2 1 1 1 1 1 1 1 1 1 1 1 1 1
7 8 7 7 9 11 13 14 13 8 4 2 2 3 3 3 3 4 3 2 2 2 4 5 5 5 5 4 3 2 2 1 1 1 1 1 0 0 0 0 1 1 1
9 8 6 6 7 9 10 11 11 8 4 2 2 3 3 3 3 4 4 3 2 2 3 4 4 4 4 4 3 2 2 1 1 0 0 0 0 0 0 0 0 0 1
8 7 5 4 5 5 6 7 7 6 4 3 2 2 2 2 3 4 4 3 3 2 2 3 3 3 3 3 2 2 2 1 1 0 0 0 0 0 0 0 0 0 0
6 5 5 4 4 5 6 7 6 5 4 4 3 3 3 2 2 3 3 3 3 3 2 2 2 3 3 2 2 2 2 1 1 0 0 0 0 0 0 0 0 0 0
4 5 5 5 5 5 7 8 7 5 5 5 4 4 4 3 3 3 3 4 4 4 3 3 2 3 3 3 2 2 2 2 1 1 0 0 0 0 0 0 0 0 0
3 4 4 5 5 5 6 8 7 6 5 5 5 4 4 4 4 5 5 5 5 5 5 4 3 3 3 3 3 3 3 2 2 1 0 0 0 0 0 0 0 0 0
3 3 4 4 4 5 6 8 8 7 6 5 5 5 5 5 6 6 7 7 7 6 6 5 4 3 4 4 4 4 3 3 2 1 1 0 0 0 0 0 0 0 0
3 3 4 4 4 5 6 7 8 7 6 5 5 5 5 5 6 6 7 8 8 8 7 6 5 4 4 5 6 5 3 3 2 2 1 1 1 1 0 0 0 0 0
3 4 4 4 4 5 5 7 7 6 5 5 5 5 5 5 5 5 5 6 7 7 7 6 5 4 4 5 6 5 3 3 2 2 2 2 2 1 1 1 0 0 0
3 4 4 4 5 5 5 5 5 6 6 5 5 6 6 5 4 4 4 3 4 5 5 5 4 4 4 4 4 4 3 2 2 3 3 3 2 2 2 1 1 0 0
3 4 4 5 5 5 4 3 4 6 7 7 6 7 8 8 6 5 4 4 3 3 3 4 4 4 4 4 4 3 3 3 3 3 4 4 4 3 2 1 1 0 0
4 4 5 5 6 5 4 3 4 7 9 7 7 8 11 11 8 6 5 5 4 4 3 3 3 3 4 4 4 4 4 4 4 4 5 5 5 3 2 1 1 0 0
5 5 6 7 8 8 6 4 5 7 8 6 6 9 12 11 8 5 4 4 5 4 3 2 2 2 3 3 3 3 4 4 4 5 6 5 4 3 2 2 1 0 0
6 6 6 8 11 11 8 4 4 6 6 5 5 7 9 8 6 4 3 4 4 5 4 3 2 2 2 2 2 2 3 4 4 5 5 5 4 3 2 2 1 1 0

GEFSMA_con_maxscp_294.txt.gz
SCP
2 2 2 2 1 1 1 1 1 1 1 1 0 0 0 0 1 1 1 1 2 2 1 1 1 1 1 1 1 1 1 1 1 1 1 1 0 0 0 1 1 1 1
2 2 2 1 1 1 1 1 1 1 1 1 1 1 1 1 1 1 1 1 2 2 1 1 1 1 1 1 1 1 1 1 1 1 1 1 1 1 1 1 1 1 1
2 2 1 1 1 1 1 1 1 1 1 1 1 1 1 1 1 1 1 1 2 1 1 1 1 1 1 1 1 1 1 1 1 1 1 1 1 1 1 1 1 1 1
2 2 1 1 1 1 1 2 2 1 1 1 1 1 1 2 2 1 1 1 2 2 2 1 1 1 1 1 1 1 1 1 1 1 1 1 1 1 1 1 1 1 1
2 2 2 2 1 1 1 2 2 2 1 1 1 1 2 2 2 2 2 2 2 3 3 2 2 2 1 1 2 2 1 1 1 1 1 1 1 1 1 1 1 1 1
2 2 2 2 2 2 2 2 2 2 2 1 1 1 2 2 3 3 3 3 3 4 4 4 3 3 2 2 2 2 2 1 1 1 1 1 1 1 1 1 1 1 1
2 2 2 2 2 3 3 3 3 2 2 2 2 1 2 2 3 3 3 3 4 4 5 6 5 4 3 3 2 2 2 2 2 2 2 2 2 1 1 1 1 1 1
3 3 3 3 3 3 4 5 4 4 3 2 2 2 2 3 3 4 4 4 4 4 6 7 7 6 5 4 3 2 2 2 2 2 2 2 2 2 2 2 2 1 1
5 5 5 4 4 4 4 5 6 5 4 3 3 3 4 4 4 4 4 3 4 4 5 8 9 8 6 5 4 3 2 2 2 2 2 2 2 2 2 2 2 2 1
6 6 7 7 6 5 5 5 6 6 5 4 4 4 5 6 6 5 3 3 3 3 4 7 9 8 6 5 5 4 3 2 2 2 2 2 2 2 2 2 2 2 1
6 6 7 8 8 7 6 5 6 6 5 4 4 5 6 6 6 5 3 3 2 2 3 5 6 6 5 5 5 4 3 2 2 2 2 2 2 2 2 2 2 2 1
6 6 7 8 8 8 7 7 7 7 6 5 5 6 7 7 6 5 3 3 2 2 2 3 4 4 4 5 5 4 3 2 2 2 2 2 2 2 2 3 2 1 1
6 6 7 8 8 9 9 9 9 8 7 6 6 6 7 7 6 4 3 3 2 2 2 3 3 3 3 4 5 3 2 2 1 2 2 2 2 2 2 2 2 1 1
6 7 10 12 12 12 11 10 9 8 8 7 6 6 7 6 5 4 3 3 2 2 2 3 4 4 4 4 4 3 2 2 1 1 1 1 1 1 2 1 1 1 1
11 13 16 18 17 14 11 10 8 8 7 7 6 6 6 5 4 4 4 4 3 3 3 3 4 4 5 4 3 3 3 2 1 1 1 1 1 1 1 1 1 1 1
16 16 17 17 14 11 9 8 8 8 7 7 7 7 7 6 5 4 4 5 5 4 3 3 4 4 4 4 3 4 4 3 2 1 1 0 0 0 0 0 0 0 0
12 12 11 9 8 7 7 7 7 7 8 7 7 7 7 7 6 5 5 5 5 5 5 4 4 4 4 4 4 4 4 4 3 2 1 0 0 0 0 0 0 0 0
6 6 5 5 4 5 6 6 7 7 8 8 7 7 6 6 7 7 6 5 5 6 7 6 5 4 4 4 5 5 4 4 4 3 1 0 0 0 0 0 0 0 0
4 4 4 4 3 4 4 6 6 7 8 8 8 7 6 6 6 7 7 7 6 7 8 8 6 5 4 5 5 5 4 4 4 3 2 1 0 0 0 0 0 0 0
4 4 3 3 3 4 4 5 6 7 8 9 9 7 6 6 6 7 7 7 7 8 9 8 6 5 5 5 5 4 4 4 3 3 2 2 1 1 0 0 0 0 0
3 3 3 4 4 5 5 6 7 8 8 9 9 7 6 6 6 6 6 6 8 8 8 7 6 5 4 4 4 4 3 3 3 3 3 3 2 2 1 1 0 0 0
3 4 4 4 5 6 6 7 7 8 9 9 9 8 6 6 6 5 5 5 6 7 6 6 6 5 4 4 4 4 3 3 3 3 3 3 2 2 2 1 1 0 0
4 4 4 5 6 6 6 6 6 8 9 10 9 9 8 8 7 7 6 6 5 5 5 5 5 4 4 5 5 4 4 4 4 3 2 2 2 2 2 2 1 1 0
5 5 5 5 6 6 5 5 5 7 9 9 9 9 10 10 9 8 7 7 6 5 4 4 4 3 3 4 5 5 5 5 4 3 2 2 2 2 2 2 2 1 0
5 5 6 6 7 7 6 5 5 7 10 10 9 9 10 10 9 7 7 7 7 6 5 3 3 2 2 3 4 5 5 5 3 2 2 2 2 2 2 2 2 1 0
5 5 6 7 9 9 8 6 5 8 10 11 10 9 9 9 8 6 7 8 8 7 5 4 3 2 2 2 3 5 5 4 3 2 2 2 2 1 2 2 2 1 1

GEFSMA_con_maxscp_300.txt.gz
SCP
0 1 1 1 1 1 1 1 1 1 1 0 0 0 0 0 0 0 0 1 1 1 1 1 1 1 1 1 1 1 1 1 1 1 1 1 1 1 1 1 0 0 0
0 1 1 1 1 1 1 1 1 1 1 1 0 0 0 0 0 0 0 1 1 1 1 1 1 2 2 1 1 1 1 1 1 1 1 1 1 1 1 0 0 0 0
0 1 1 1 1 1 1 1 1 1 1 1 0 0 0 0 0 0 0 0 1 1 1 1 2 2 2 1 1 1 1 1 1 1 1 1 1 1 1 0 0 1 1
0 1 1 1 1 1 1 1 1 1 1 1 1 0 0 0 0 0 0 0 1 1 1 1 2 2 2 1 1 1 1 1 1 1 1 1 1 1 1 1 1 1 1
1 1 1 1 1 1 1 1 1 1 1 1 1 1 1 1 1 0 0 1 1 1 1 2 2 2 2 2 1 1 1 1 1 1 1 1 1 1 1 1 1 1 1
1 1 1 1 1 2 2 2 2 2 2 2 1 1 1 1 1 1 1 1 1 1 1 2 2 2 2 2 2 2 1 1 1 1 1 1 1 1 1 1 1 1 1
1 1 1 1 1 2 2 2 2 2 2 2 2 1 1 1 1 1 1 1 1 1 1 2 2 3 3 3 3 2 2 2 2 2 1 1 1 1 1 1 1 1 1
1 1 1 2 2 2 2 2 2 2 2 2 2 2 1 1 1 1 1 1 1 1 1 1 2 2 3 3 3 2 2 2 2 2 2 2 1 1 1 1 1 1 1
2 2 2 2 2 2 2 2 2 2 2 2 2 2 2 2 2 1 1 1 1 1 1 1 1 2 2 2 2 2 2 2 2 2 2 2 2 2 1 1 1 1 1
3 3 2 2 2 3 3 2 2 3 3 3 3 3 3 3 3 2 1 1 1 1 1 1 1 1 1 2 2 2 2 2 2 2 2 2 2 2 2 2 1 1 1
4 4 3 3 3 3 3 3 4 4 4 5 5 4 4 3 3 3 2 1 1 0 0 0 1 1 1 1 2 2 2 2 2 1 1 1 2 2 2 2 2 1 1
4 4 4 4 4 4 5 5 5 5 5 6 6 5 4 3 3 2 2 1 1 1 1 1 1 1 1 1 1 2 2 2 1 1 1 1 1 2 2 2 2 2 1
4 4 4 4 5 5 6 6 6 5 5 6 5 5 4 3 2 2 2 1 1 1 1 1 1 1 1 1 1 1 2 2 2 1 1 1 1 1 1 1 1 1 1
4 4 4 4 4 5 5 5 5 4 4 4 4 4 3 2 2 2 2 2 2 1 1 1 1 1 1 1 1 1 1 1 1 1 1 1 1 1 1 1 1 1 1
4 4 4 3 3 4 4 4 3 3 3 3 3 3 3 2 2 2 2 2 2 2 1 1 1 1 1 1 1 1 1 1 1 1 1 1 1 1 1 1 1 1 1
3 3 3 3 3 3 2 2 3 3 3 3 3 3 2 2 2 2 3 3 3 3 2 2 1 1 1 1 1 1 1 1 1 1 1 1 1 1 1 1 1 1 1
2 2 2 2 2 2 2 2 3 3 4 3 3 3 2 2 2 3 3 3 3 3 3 2 2 1 1 1 1 1 1 1 1 1 1 1 0 0 0 0 0 0 0
2 2 2 2 2 2 2 2 2 4 4 4 3 3 2 2 2 2 3 3 3 4 3 3 2 1 1 1 1 1 1 1 1 1 1 1 0 0 0 0 0 0 0
2 2 2 2 2 3 2 2 2 3 4 5 4 3 2 2 2 2 2 3 4 4 4 3 2 1 1 1 1 1 1 1 1 1 1 1 0 0 0 0 0 0 0
3 2 2 2 3 3 4 3 3 4 4 5 4 3 2 2 2 2 2 3 3 4 3 3 2 2 1 1 1 1 1 1 1 1 1 0 0 0 0 0 0 0 0
3 2 2 2 3 4 4 4 5 5 5 5 4 3 2 2 1 2 2 3 3 3 3 3 2 2 1 1 1 1 1 1 0 0 0 0 0 0 0 0 0 0 0
4 3 2 2 2 3 3 3 4 5 5 5 4 3 3 2 2 2 2 3 3 3 3 3 2 2 1 1 1 1 1 1 0 0 0 0 0 0 0 0 0 0 0
4 4 3 2 2 2 2 2 3 4 5 5 5 5 4 4 3 3 3 3 3 3 3 3 3 2 2 1 1 0 0 0 0 1 1 1 0 0 0 0 0 0 0
6 5 4 3 2 2 2 2 2 3 5 5 5 5 5 4 4 4 4 3 3 3 3 3 3 2 2 1 1 1 0 0 0 0 0 0 0 0 1 0 0 0 0
8 7 5 3 2 2 2 2 2 3 4 4 4 4 3 3 3 3 4 4 4 4 3 2 2 2 1 1 1 1 1 1 0 0 0 0 0 0 0 0 0 0 0
11 9 5 3 2 2 2 2 2 3 4 4 3 2 2 2 2 3 3 4 4 4 4 3 2 1 1 1 1 1 1 1 1 0 0 0 0 0 0 0 0 0 0

GEFSMA_con_maxscp_306.txt.gz
SCP
0 1 1 1 1 1 1 1 1 1 1 1 1 1 1 1 1 1 1 1 1 1 1 1 1 1 1 1 1 1 2 2 1 1 1 1 1 1 1 1 1 1 1
0 1 1 1 1 1 1 1 1 1 1 1 1 1 1 1 1 1 1 1 1 1 1 1 1 1 1 1 1 2 2 2 1 1 1 1 1 1 1 1 1 1 1
0 1 1 1 1 1 1 1 1 1 1 1 1 1 1 1 1 1 1 1 1 1 1 1 1 1 1 1 1 2 2 2 1 1 1 1 1 1 1 1 1 0 0
1 1 1 1 1 1 1 1 1 1 1 1 1 1 1 1 1 1 1 1 1 1 1 1 1 1 1 1 1 2 2 2 2 1 1 1 1 1 1 1 1 1 0
1 1 1 1 1 1 1 1 1 1 1 1 1 1 1 1 1 1 1 1 1 1 1 1 1 1 1 1 1 2 2 2 2 2 2 1 1 1 1 1 1 1 1
1 1 1 1 1 1 1 1 1 2 2 2 2 1 1 1 1 1 1 1 1 1 1 1 1 1 1 1 1 2 2 2 2 2 2 2 1 1 1 1 1 1 1
2 2 2 2 2 1 2 2 2 2 2 2 2 2 2 1 2 2 1 1 1 1 1 1 1 1 1 1 1 2 2 2 2 2 2 2 2 1 1 1 1 1 1
1 2 2 2 2 2 2 3 3 3 3 2 2 2 2 2 2 2 2 2 2 2 2 1 1 1 1 1 1 1 2 2 3 3 2 2 2 2 1 1 1 1 1
2 2 2 2 2 2 3 3 4 4 4 3 3 3 3 4 4 3 2 2 2 2 2 1 1 1 1 1 1 1 1 2 3 3 3 2 2 2 2 2 1 1 1
2 2 2 2 2 3 3 3 4 4 4 4 4 4 5 5 5 5 4 2 2 2 1 1 2 2 2 1 1 1 1 1 2 3 2 2 2 2 2 2 2 1 1
2 2 2 2 3 3 3 3 4 5 5 5 5 6 6 6 6 5 4 3 2 1 1 1 2 1 1 1 1 1 1 1 1 2 2 2 2 2 2 2 2 2 2
2 2 2 2 2 3 3 3 4 5 5 5 6 7 7 6 5 5 4 3 2 1 1 1 1 1 1 1 1 1 1 1 1 1 1 2 2 2 2 2 2 2 2
2 2 2 2 2 2 2 3 3 4 4 4 5 6 5 5 4 3 3 2 2 1 1 1 1 1 1 1 1 1 1 1 0 1 1 1 1 2 2 2 2 2 2
2 2 1 1 1 1 2 2 2 2 2 3 3 3 3 3 2 2 2 2 2 2 1 1 1 1 1 0 0 0 0 0 1 1 1 1 1 2 2 2 2 2 2
1 1 1 1 1 1 1 1 2 2 2 2 2 2 2 2 2 2 2 2 2 2 2 2 1 1 1 0 0 0 0 0 1 1 1 1 1 1 1 1 1 1 1
1 1 1 1 1 1 1 1 1 1 2 2 2 2 2 2 2 2 2 2 3 3 3 3 2 2 1 1 1 1 1 1 1 0 0 1 1 1 1 1 1 1 1
2 2 2 1 1 1 1 1 1 1 2 2 2 2 2 2 2 2 2 2 3 3 3 3 3 2 1 1 1 1 1 1 1 0 0 0 0 1 1 1 1 1 0
2 2 2 2 2 1 1 1 1 1 1 2 2 2 2 2 2 1 1 2 2 3 3 3 3 2 1 1 1 1 1 1 1 1 0 0 0 0 0 0 0 0 0
3 3 3 3 3 2 2 2 1 1 1 1 2 2 2 2 2 2 1 1 2 2 2 2 2 2 2 1 1 1 1 1 1 1 0 0 0 0 0 0 0 0 0
5 5 4 4 3 3 3 3 2 2 2 2 2 2 2 2 2 2 1 1 1 1 2 2 2 2 2 2 2 1 1 1 1 1 0 0 0 0 0 0 0 0 0
6 6 6 5 4 4 4 4 3 3 2 2 2 2 2 3 2 2 1 1 2 2 2 3 3 3 3 3 3 2 2 1 1 1 0 0 1 1 0 0 0 0 0
8 7 7 6 6 5 4 4 4 3 3 2 2 2 3 3 2 2 1 1 2 2 3 3 4 4 4 4 4 3 2 1 1 1 0 1 1 1 1 0 0 0 0
9 8 8 7 6 5 5 4 4 4 3 3 2 3 3 3 3 2 2 1 2 2 3 4 4 5 5 6 5 4 3 2 1 1 1 1 1 1 1 0 0 0 0
9 9 9 8 7 5 4 3 3 4 4 3 3 3 4 4 3 2 2 2 2 2 3 3 4 5 6 6 6 5 3 2 1 1 1 1 1 1 1 0 0 0 0
8 9 9 9 7 5 4 3 3 4 4 3 3 3 4 4 3 2 2 2 2 3 3 3 4 4 4 4 5 4 3 3 2 1 1 1 1 1 0 0 0 0 0
7 8 9 9 7 5 3 2 3 4 4 3 3 3 4 4 3 1 1 2 2 3 4 4 4 4 3 3 3 3 3 3 3 2 1 1 1 1 0 0 0 0 0

GEFSMA_con_maxscp_312.txt.gz
SCP
1 1 1 1 2 2 2 1 1 1 1 1 1 1 2 2 2 2 2 2 2 1 1 1 1 2 2 1 2 2 2 1 1 1 1 1 1 1 1 1 0 1 1
1 2 2 2 2 2 2 2 1 1 1 1 1 2 2 2 2 2 2 2 2 1 1 1 2 2 2 2 2 2 2 1 1 2 2 1 1 1 1 1 0 1 1
2 2 2 2 2 2 2 2 2 2 2 2 2 2 2 2 2 2 2 2 1 1 1 2 2 2 2 2 2 2 2 1 2 2 2 2 1 1 1 1 1 1 1
2 2 2 3 3 3 3 3 3 2 2 2 2 3 3 3 2 2 2 1 1 1 1 2 2 2 2 2 2 2 2 2 2 2 2 2 1 1 1 1 1 1 1
2 2 2 3 4 4 4 4 3 3 3 3 3 3 3 4 3 3 2 2 1 1 1 2 2 2 2 3 3 3 3 2 2 2 2 2 2 1 1 1 1 1 1
3 3 3 3 4 5 5 5 4 4 4 5 4 4 4 5 5 4 3 2 2 2 2 2 2 2 2 3 4 4 4 3 3 3 2 2 2 2 1 1 1 1 1
3 3 3 4 4 5 5 5 5 5 6 6 6 6 6 6 6 5 4 3 2 2 2 2 3 3 3 2 3 3 3 3 3 3 2 2 2 2 2 1 1 1 1
3 3 4 4 4 4 5 5 5 5 6 8 8 8 7 6 5 5 4 3 3 3 3 3 3 4 3 2 2 3 3 3 3 3 3 2 2 2 2 2 1 1 1
3 3 4 4 4 4 4 4 4 5 6 7 8 8 7 6 5 4 4 3 3 3 3 3 3 3 3 3 3 3 3 3 3 3 3 3 2 2 2 2 2 2 1
3 3 3 3 3 3 3 3 3 4 4 5 6 7 8 7 6 5 4 3 3 3 3 3 3 3 4 4 3 3 2 2 2 2 2 3 2 2 2 2 2 2 2
3 3 3 3 3 3 4 4 4 4 4 4 6 7 8 8 7 6 4 4 3 3 3 3 3 3 3 3 3 2 2 1 1 1 2 2 2 2 2 2 2 2 2
3 3 3 3 3 4 4 5 5 5 5 5 6 7 8 7 6 5 4 3 3 2 3 3 3 3 3 3 3 2 2 1 1 1 1 1 2 2 2 2 2 2 2
2 2 3 3 4 5 5 5 5 5 5 5 6 6 6 6 5 4 4 3 2 2 2 3 4 3 3 3 3 2 1 1 0 0 1 1 1 1 2 2 2 2 2
3 3 3 4 5 5 5 4 4 4 4 4 4 4 4 4 5 5 4 3 2 2 2 2 3 3 3 3 3 2 1 1 0 0 0 0 1 1 1 2 2 2 2
3 3 3 3 4 4 3 3 3 2 2 2 2 2 2 3 4 5 5 4 2 2 2 2 2 2 3 3 2 2 2 1 1 0 0 0 0 1 1 1 1 1 1
3 3 2 2 2 2 2 2 2 2 1 2 2 2 2 2 3 4 4 4 3 3 2 2 2 3 3 3 2 3 3 2 2 1 0 0 0 1 1 1 1 1 1
2 2 2 2 2 2 2 2 2 2 2 2 2 2 2 2 2 3 4 4 4 4 3 2 2 3 3 3 3 3 3 3 3 2 1 1 0 0 1 1 1 1 1
2 2 2 2 2 2 2 2 3 3 3 3 3 2 2 2 3 4 4 5 4 4 3 2 2 2 3 3 3 3 3 4 4 3 2 1 0 0 0 1 1 1 1
2 2 2 3 3 3 3 3 3 3 3 4 4 3 3 3 4 4 5 5 4 4 3 3 2 2 2 3 3 3 3 4 4 4 3 2 1 0 0 0 0 0 0
3 3 3 4 4 4 4 4 4 4 4 5 5 5 4 3 3 4 4 5 5 4 4 3 2 2 2 3 3 3 4 4 5 6 5 4 2 1 1 0 0 0 0
4 4 4 4 5 6 6 6 5 5 5 6 6 6 5 4 3 3 3 4 5 6 5 4 3 3 3 3 4 4 4 5 7 8 7 6 5 3 2 1 1 0 0
5 5 4 4 5 6 6 6 6 6 6 6 7 7 6 5 3 3 3 3 4 5 6 6 5 4 4 4 4 4 5 6 8 10 10 8 7 5 4 2 1 0 0
5 5 4 4 4 5 6 5 5 6 6 7 8 9 8 6 4 4 3 3 3 4 5 6 6 6 5 4 5 5 7 9 10 12 12 10 8 6 4 2 1 0 0
6 5 4 4 4 4 5 4 5 6 7 8 9 10 9 7 5 5 5 5 4 4 4 5 6 6 5 4 5 6 8 10 11 11 12 11 8 6 4 3 1 0 0
7 6 5 5 5 5 5 4 4 6 7 9 11 11 9 7 6 6 6 7 7 7 5 4 4 4 3 3 4 6 8 9 9 9 10 9 8 6 5 3 2 0 0
6 6 5 5 5 6 6 4 4 6 8 9 11 11 8 7 6 6 7 9 9 8 7 5 3 3 2 2 3 5 7 8 7 7 8 9 7 6 6 4 2 1 1